Location: Emblem
(62.4273°N, 6.4710°E)
Time: 19:14:55
(UTC+02:00)

Vanguard 2 - Pass Details

Date: 09 February 2023
Orbit: 553 x 2927 km, 32.9° (Epoch: 27 March)

Event Time Altitude Azimuth Distance (km) Brightness Sun altitude
Rises 21:27:36 0° 211° (SSW) 5,076 11.7 -30.6°
Reaches altitude 10° 21:32:47 10° 191° (S) 4,553 11.2 -31.1°
Enters shadow 21:34:42 13° 182° (S) 4,486 11.1 -31.3°
Maximum altitude 21:39:09 15° 161° (SSE) 4,604 - -31.8°
Drops below altitude 10° 21:46:34 10° 133° (SE) 5,454 - -32.5°
Sets 21:53:59 0° 115° (ESE) 6,717 - -33.2°
